Content
SEND FEEDBACK

Daily
Averages
Monthly
Summary
United States of America

BEDFORD, PENNSYLVANIA


Home > North America > United States > Pennsylvania
Elevation: 1190 feet     Latitude: 40 03N     Longitude: 078 32W

WEATHER
 
SELECT A DAY
Number of Records: 133,389;   Date Range: 1/1/95 - 7/27/14
 
SHARE

PRINT THIS DATA

[ ← Previous Day ]
WEATHER ALMANAC - JANUARY 31, 2013
[ Next Day → ]
[ °C ]   °F
Weather ElementAverageHighLow
Temperature28.4 °F48 °F (1:53 am)23 °F (4:50 pm)
Dewpoint19.5 °F41 °F (1:53 am)10 °F (5:53 pm)
Humidity69.6 %93 % (10:05 am)55 % (3:53 pm)
Barometer29.58 in29.83 in (6:53 pm)29.23 in (1:53 am)
Wind Speed24.1 mph35.7 mph (12:02 pm)
Wind Gust50.6 mph (2:53 am)
Weather ElementAverage
Visibility5.1 mi
Wind DirectionW (269.2 °)

Weather ElementTotal
Precipitation0.07 in
Heating Degree Days29.5 (Base 65)
Averaged from 60 records on January 31, 2013
WEATHER CONDITIONS BREAKOUT
WIND DIRECTION BREAKOUT
WEATHER BY HOUR - JANUARY 31, 2013
[ °C ]   °F
Local TimeTemperatureDewpointHumidityBarometerVisibilityWind DirectionWind SpeedGust SpeedPrecipitationEventsConditions
1:53 AM48.0 °F41.0 °F77 %29.23 in10.0 miWSW (250°)17.3 mph32.2 mph0.04 inRainLight Rain
2:53 AM42.1 °F34.0 °F73 %29.24 in10.0 miWest (280°)28.8 mph50.6 mph0.03 inRainLight Rain
3:53 AM39.0 °F28.9 °F67 %29.28 in10.0 miWest (270°)33.4 mph44.9 mph0.00 inOvercast
4:25 AM35.6 °F30.2 °F81 %29.31 in2.5 miWNW (290°)19.6 mph33.4 mph0.00 inSnowLight Snow
4:35 AM35.6 °F26.6 °F70 %29.30 in8.0 miWest (270°)27.6 mph47.2 mph0.00 inSnowLight Snow
4:53 AM35.1 °F26.1 °F70 %29.34 in10.0 miWest (270°)24.2 mph41.4 mph0.00 inOvercast
5:04 AM33.8 °F26.6 °F75 %29.33 in10.0 miWest (280°)25.3 mph40.3 mphOvercast
5:17 AM33.8 °F24.8 °F70 %29.34 in10.0 miWest (270°)26.5 mph38.0 mphOvercast
5:53 AM33.1 °F24.1 °F70 %29.41 in2.0 miWest (280°)29.9 mph40.3 mph0.00 inSnowLight Snow
5:58 AM32.0 °F26.6 °F80 %29.39 in1.2 miWest (270°)23.0 mph36.8 mph0.00 inSnowLight Snow
6:08 AM32.0 °F26.6 °F80 %29.40 in3.0 miWest (260°)20.7 mph28.8 mph0.00 inSnowLight Snow
6:26 AM30.2 °F26.6 °F86 %29.40 in3.0 miWest (270°)16.1 mph31.1 mph0.00 inSnowLight Snow
6:53 AM32.0 °F23.0 °F69 %29.45 in4.0 miWest (270°)27.6 mph43.7 mph0.00 inSnowLight Snow
7:53 AM32.0 °F21.9 °F66 %29.50 in10.0 miWest (260°)19.6 mph36.8 mph0.00 inOvercast
8:53 AM30.9 °F19.9 °F64 %29.52 in10.0 miWest (260°)20.7 mph39.1 mphOvercast
9:06 AM28.4 °F23.0 °F80 %29.51 in0.8 miWest (270°)32.2 mph42.6 mph0.00 inSnowLight Snow
9:08 AM28.4 °F21.2 °F74 %29.51 in0.5 miWest (270°)27.6 mph42.6 mph0.00 inSnowSnow
9:19 AM28.4 °F19.4 °F69 %29.52 in1.0 miWest (270°)26.5 mph39.1 mph0.00 inSnowLight Snow
9:27 AM30.2 °F19.4 °F64 %29.52 in9.0 miWest (280°)21.9 mph39.1 mph0.00 inSnowLight Snow
9:42 AM30.2 °F19.4 °F64 %29.53 in8.0 miWest (270°)24.2 mph29.9 mph0.00 inSnowLight Snow
9:53 AM28.9 °F21.0 °F72 %29.56 in3.0 miWest (270°)23.0 mph31.1 mph0.00 inSnowLight Snow
9:55 AM28.4 °F21.2 °F74 %29.54 in1.8 miWest (260°)20.7 mph31.1 mph0.00 inSnowLight Snow
9:58 AM28.4 °F21.2 °F74 %29.54 in0.8 miWest (260°)21.9 mph27.6 mph0.00 inSnowLight Snow
10:05 AM26.6 °F24.8 °F93 %29.54 in0.2 miWest (270°)15.0 mph27.6 mph0.00 inFog-SnowHeavy Snow
10:12 AM28.4 °F24.8 °F86 %29.54 in1.0 miWest (280°)24.2 mph33.4 mph0.00 inSnowLight Snow
10:19 AM28.4 °F21.2 °F74 %29.54 in3.0 miWest (280°)27.6 mph47.2 mph0.00 inSnowLight Snow
10:41 AM28.4 °F17.6 °F64 %29.56 in10.0 miWest (280°)24.2 mph34.5 mph0.00 inOvercast
10:53 AM30.0 °F16.0 °F56 %29.59 in10.0 miWest (270°)31.1 mph39.1 mph0.00 inOvercast
11:31 AM28.4 °F19.4 °F69 %29.59 in1.8 miWest (260°)27.6 mph36.8 mph0.00 inSnowLight Snow
11:35 AM26.6 °F19.4 °F74 %29.60 in0.5 miWest (260°)28.8 mph36.8 mph0.00 inSnowSnow
11:43 AM26.6 °F21.2 °F80 %29.60 in0.2 miWest (280°)28.8 mph39.1 mph0.00 inSnowHeavy Snow
11:49 AM26.6 °F17.6 °F69 %29.60 in1.0 miWest (280°)31.1 mph41.4 mph0.00 inSnowLight Snow
11:53 AM26.1 °F16.0 °F66 %29.64 in2.5 miWest (280°)27.6 mph42.6 mph0.00 inSnowLight Snow
12:02 PM26.6 °F15.8 °F64 %29.61 in9.0 miWest (270°)35.7 mph44.9 mph0.00 inOvercast
12:44 PM26.6 °F17.6 °F69 %29.62 in1.8 miWest (270°)20.7 mph0.00 inSnowLight Snow
12:49 PM24.8 °F17.6 °F74 %29.63 in0.8 miWest (270°)19.6 mph26.5 mph0.00 inSnowLight Snow
12:53 PM25.0 °F19.0 °F78 %29.65 in0.8 miWest (280°)17.3 mph26.5 mph0.00 inSnowLight Snow
1:00 PM26.6 °F17.6 °F69 %29.62 in2.0 miWest (260°)21.9 mph26.5 mph0.00 inSnowLight Snow
1:19 PM26.6 °F17.6 °F69 %29.62 in6.0 miWest (270°)23.0 mph35.7 mph0.00 inSnowLight Snow
1:35 PM26.6 °F15.8 °F64 %29.62 in2.5 miWest (270°)24.2 mph32.2 mph0.00 inSnowLight Snow
1:42 PM26.6 °F15.8 °F64 %29.62 in4.0 miWest (270°)28.8 mph38.0 mph0.00 inSnowLight Snow
1:53 PM26.1 °F16.0 °F66 %29.66 in9.0 miWest (260°)24.2 mph34.5 mph0.00 inOvercast
2:53 PM26.1 °F18.0 °F71 %29.68 in2.0 miWest (260°)20.7 mph29.9 mph0.00 inSnowLight Snow
3:00 PM26.6 °F19.4 °F74 %29.64 in1.0 miWSW (250°)21.9 mph29.9 mph0.00 inSnowLight Snow
3:05 PM26.6 °F17.6 °F69 %29.65 in2.5 miWest (260°)29.9 mph38.0 mph0.00 inSnowLight Snow
3:12 PM26.6 °F17.6 °F69 %29.65 in9.0 miWest (260°)26.5 mph38.0 mph0.00 inOvercast
3:53 PM26.1 °F12.0 °F55 %29.72 in10.0 miWest (270°)28.8 mph38.0 mph0.00 inOvercast
4:46 PM24.8 °F12.2 °F59 %29.71 in1.5 miWest (270°)33.4 mph42.6 mph0.00 inSnowLight Snow
4:50 PM23.0 °F15.8 °F74 %29.71 in0.8 miWNW (290°)23.0 mph42.6 mph0.00 inSnowLight Snow
4:53 PM23.0 °F16.0 °F74 %29.76 in0.8 miWest (280°)21.9 mph42.6 mph0.00 inSnowLight Snow
4:58 PM23.0 °F15.8 °F74 %29.72 in2.0 miWNW (290°)20.7 mph31.1 mph0.00 inSnowLight Snow
5:06 PM23.0 °F12.2 °F63 %29.72 in4.0 miWest (270°)27.6 mph38.0 mph0.00 inSnowLight Snow
5:22 PM23.0 °F12.2 °F63 %29.74 in10.0 miWest (270°)27.6 mph32.2 mph0.00 inOvercast
5:53 PM23.0 °F10.0 °F58 %29.80 in10.0 miWest (270°)19.6 mph36.8 mph0.00 inOvercast
6:53 PM23.0 °F10.9 °F60 %29.83 in10.0 miWest (270°)13.8 mph23.0 mphMostly Cloudy
7:53 PM24.1 °F10.9 °F57 %29.83 in10.0 miWSW (250°)19.6 mph23.0 mphOvercast
8:53 PM24.1 °F10.9 °F57 %29.82 in10.0 miWest (260°)18.4 mph24.2 mphMostly Cloudy
9:53 PM24.1 °F10.9 °F57 %29.82 in10.0 miWSW (250°)18.4 mph31.1 mphOvercast
10:53 PM24.1 °F14.0 °F65 %29.83 in8.0 miWSW (250°)15.0 mph23.0 mph0.00 inSnowLight Snow
11:53 PM24.1 °F12.9 °F62 %29.83 in10.0 miWest (270°)19.6 mph26.5 mph0.00 inOvercast
Hourly data recorded from KAOO, located miles away from Bedford, Pennsylvania







STORIES FROM OUR PARTNERS